Location: �perlecques
(50.8057°N, 2.1521°E)
Time: 00:35:08
(UTC+00:00)

MetOp-B - Pass Details

Date: 09 April 2020
Orbit: 819 x 822 km, 98.7° (Epoch: 04 June)

Event Time Altitude Azimuth Distance (km) Brightness Sun altitude
Exits shadow 20:32:21 23° 160° (SSE) 1,701 5.3 -17.1°
Maximum altitude 20:35:51 86° 73° (ENE) 832 4.1 -17.5°
Drops below altitude 10° 20:41:15 10° 346° (NNW) 2,432 7.4 -18.2°
Sets 20:43:37 0° 346° (NNW) 3,369 8.2 -18.5°
